Preview of NWS' New Version of Forecast
This preview is not operational and should not be used for support decisions.

Regional Weather Roundup (RWR)

Issued by National Weather Service (NWS)

                            
000
ASUS43 KBIS 211302
RWRND 

NORTH DAKOTA REGIONAL WEATHER ROUNDUP
NATIONAL WEATHER SERVICE BISMARCK ND
800 AM CDT SUN APR 21 2019

NOTE: "FAIR" INDICATES FEW OR NO CLOUDS BELOW 12,000 FEET WITH NO
SIGNIFICANT WEATHER AND/OR OBSTRUCTIONS TO VISIBILITY.


NDZ001>003-009>011-017-211400-
NORTHWEST NORTH DAKOTA
  
CITY           SKY/WX    TMP DP  RH WIND       PRES   REMARKS
WILLISTON      LGT RAIN  48  43  82 SE5       30.00R                  
MINOT          CLOUDY    46  43  89 NW5       29.97R                  
MINOT AFB      CLOUDY    45  45  99 CALM      29.96R                  
$$
 
NDZ018>021-031>035-040>046-211400-
SOUTHWEST NORTH DAKOTA
  
CITY           SKY/WX    TMP DP  RH WIND       PRES   REMARKS
BISMARCK       PTSUNNY   48  41  76 NE14      29.91R                  
DICKINSON      LGT RAIN  47  45  93 E7        29.94R FOG              
GARRISON         N/A     44  42  93 N7        29.95R                  
HETTINGER ARPT CLOUDY    45  42  89 NE16      29.92S                  
$$
 
NDZ004>008-012>016-024-026-027-054-211400-
NORTHEAST NORTH DAKOTA
  
CITY           SKY/WX    TMP DP  RH WIND       PRES   REMARKS
GRAND FORKS    PTSUNNY   45  40  82 N8        29.92R                  
GRND FRKS AFB  PTSUNNY   43  43  99 N8        29.93R                  
DEVILS LAKE    PTSUNNY   43  39  86 N5        29.96R                  
$$
 
NDZ022-023-025-028>030-036>039-047>053-211400-
SOUTHEAST NORTH DAKOTA
  
CITY           SKY/WX    TMP DP  RH WIND       PRES   REMARKS
FARGO          CLOUDY    47  44  90 NE12      29.87R                  
JAMESTOWN      CLOUDY    45  43  93 N12       29.90R                  
$$